Total_Precipitation_Accumulation
0.66 0.67 0.71 0.73 0.76 0.87 0.99 1.07 1.11 1.10 1.09 1.17 1.26 1.34 1.35 1.36 1.39 1.37 1.27 1.21 1.16 1.09 1.05 1.07 1.08 1.06 1.12 1.14 1.18 1.27 1.38 1.54 1.60 1.31 1.11 1.10 1.18 1.20 1.21 1.11 1.07 1.09 1.08
0.53 0.53 0.55 0.59 0.61 0.67 0.76 0.84 0.90 0.95 0.98 1.01 1.01 1.02 1.09 1.14 1.20 1.24 1.21 1.14 1.09 1.03 0.99 1.00 1.00 1.01 1.07 1.11 1.17 1.24 1.30 1.37 1.45 1.35 1.15 1.05 0.99 0.95 0.93 0.89 0.84 0.81 0.80
0.45 0.47 0.47 0.47 0.48 0.52 0.57 0.62 0.65 0.71 0.81 0.88 0.88 0.86 0.85 0.85 0.91 1.00 1.05 1.08 1.05 1.00 1.01 1.02 1.01 1.03 1.07 1.10 1.16 1.22 1.23 1.21 1.19 1.15 1.01 0.86 0.79 0.75 0.77 0.74 0.71 0.71 0.66
0.40 0.41 0.43 0.42 0.43 0.45 0.46 0.49 0.50 0.52 0.54 0.58 0.63 0.66 0.71 0.73 0.73 0.78 0.84 0.93 0.99 1.01 1.03 1.04 1.06 1.12 1.18 1.22 1.22 1.20 1.16 1.12 1.07 1.02 0.94 0.84 0.74 0.66 0.67 0.70 0.69 0.66 0.63
0.38 0.37 0.37 0.39 0.39 0.39 0.38 0.38 0.36 0.35 0.36 0.40 0.45 0.49 0.55 0.60 0.64 0.67 0.69 0.75 0.81 0.87 0.96 1.04 1.10 1.20 1.23 1.17 1.06 0.97 0.91 0.91 0.90 0.90 0.85 0.75 0.67 0.61 0.60 0.55 0.57 0.58 0.60
0.37 0.36 0.36 0.37 0.37 0.37 0.34 0.30 0.29 0.30 0.32 0.34 0.37 0.41 0.47 0.51 0.64 0.65 0.60 0.61 0.71 0.76 0.81 0.89 0.96 1.02 0.96 0.94 0.88 0.82 0.82 0.85 0.84 0.76 0.68 0.59 0.50 0.45 0.45 0.51 0.58 0.67 0.68
0.44 0.40 0.36 0.36 0.36 0.37 0.37 0.37 0.36 0.35 0.36 0.38 0.38 0.41 0.44 0.51 0.63 0.64 0.68 0.63 0.67 0.71 0.70 0.71 0.69 0.68 0.68 0.59 0.63 0.64 0.65 0.68 0.64 0.58 0.56 0.47 0.41 0.39 0.48 0.58 0.60 0.60 0.53
0.55 0.53 0.48 0.49 0.51 0.53 0.55 0.56 0.54 0.54 0.55 0.55 0.54 0.55 0.58 0.65 0.72 0.67 0.65 0.59 0.59 0.58 0.54 0.50 0.48 0.47 0.46 0.48 0.50 0.51 0.45 0.42 0.41 0.37 0.34 0.33 0.35 0.41 0.51 0.61 0.63 0.64 0.55
0.70 0.77 0.76 0.75 0.77 0.80 0.85 0.88 0.85 0.81 0.80 0.81 0.80 0.76 0.73 0.72 0.68 0.57 0.50 0.45 0.43 0.40 0.37 0.35 0.35 0.35 0.41 0.47 0.46 0.45 0.42 0.39 0.41 0.42 0.41 0.40 0.44 0.47 0.52 0.60 0.71 0.83 0.76
0.82 0.88 0.86 0.87 0.87 0.86 0.87 0.88 0.84 0.79 0.77 0.74 0.73 0.68 0.62 0.54 0.48 0.41 0.36 0.30 0.29 0.27 0.27 0.28 0.32 0.34 0.43 0.52 0.47 0.46 0.46 0.42 0.43 0.45 0.43 0.41 0.39 0.40 0.47 0.46 0.55 0.81 0.83
0.80 0.76 0.70 0.68 0.64 0.60 0.57 0.55 0.53 0.50 0.47 0.45 0.42 0.38 0.33 0.30 0.29 0.28 0.28 0.26 0.26 0.28 0.28 0.27 0.29 0.38 0.45 0.52 0.54 0.49 0.49 0.50 0.48 0.48 0.47 0.45 0.44 0.44 0.43 0.40 0.42 0.64 0.86
0.53 0.45 0.39 0.37 0.36 0.35 0.34 0.32 0.28 0.26 0.25 0.24 0.22 0.21 0.19 0.19 0.21 0.23 0.27 0.28 0.30 0.29 0.28 0.26 0.28 0.39 0.46 0.49 0.49 0.50 0.57 0.58 0.52 0.51 0.51 0.49 0.46 0.45 0.42 0.41 0.42 0.46 0.54
0.22 0.19 0.16 0.16 0.17 0.17 0.18 0.18 0.16 0.14 0.14 0.15 0.14 0.15 0.16 0.16 0.18 0.23 0.25 0.28 0.32 0.31 0.28 0.33 0.38 0.43 0.44 0.42 0.44 0.48 0.52 0.50 0.50 0.52 0.49 0.42 0.38 0.38 0.42 0.47 0.50 0.51 0.51
0.13 0.12 0.11 0.10 0.11 0.13 0.14 0.16 0.16 0.16 0.16 0.17 0.17 0.18 0.17 0.17 0.18 0.20 0.24 0.27 0.32 0.33 0.32 0.34 0.39 0.42 0.44 0.43 0.43 0.44 0.44 0.46 0.49 0.50 0.46 0.42 0.42 0.45 0.48 0.49 0.55 0.58 0.64
0.14 0.14 0.14 0.13 0.12 0.14 0.16 0.18 0.20 0.20 0.22 0.26 0.25 0.25 0.26 0.24 0.22 0.31 0.36 0.36 0.38 0.41 0.46 0.46 0.44 0.42 0.43 0.42 0.41 0.40 0.42 0.46 0.50 0.49 0.52 0.53 0.52 0.52 0.51 0.50 0.57 0.65 0.70
0.18 0.19 0.20 0.20 0.19 0.19 0.20 0.21 0.24 0.27 0.29 0.30 0.30 0.32 0.31 0.31 0.33 0.39 0.42 0.44 0.47 0.55 0.60 0.52 0.44 0.40 0.40 0.40 0.41 0.43 0.44 0.46 0.48 0.54 0.60 0.63 0.64 0.64 0.61 0.58 0.63 0.71 0.70
0.25 0.26 0.28 0.28 0.27 0.27 0.28 0.28 0.28 0.30 0.33 0.34 0.32 0.32 0.33 0.36 0.39 0.42 0.45 0.48 0.52 0.58 0.56 0.43 0.36 0.36 0.38 0.39 0.42 0.46 0.47 0.46 0.53 0.63 0.68 0.69 0.73 0.74 0.73 0.71 0.70 0.74 0.72
0.23 0.26 0.28 0.28 0.29 0.29 0.30 0.31 0.32 0.33 0.32 0.30 0.31 0.34 0.37 0.40 0.43 0.45 0.51 0.58 0.56 0.51 0.43 0.38 0.36 0.37 0.41 0.44 0.47 0.50 0.53 0.54 0.59 0.64 0.67 0.70 0.77 0.85 0.85 0.78 0.75 0.78 0.80
0.24 0.25 0.28 0.30 0.31 0.32 0.33 0.34 0.34 0.34 0.33 0.30 0.30 0.35 0.43 0.49 0.52 0.53 0.55 0.54 0.47 0.40 0.35 0.35 0.37 0.42 0.46 0.50 0.54 0.56 0.60 0.63 0.62 0.67 0.68 0.68 0.76 0.91 0.88 0.75 0.77 0.79 0.87
0.26 0.32 0.37 0.37 0.36 0.36 0.37 0.39 0.38 0.37 0.37 0.36 0.36 0.38 0.50 0.62 0.58 0.51 0.48 0.43 0.41 0.38 0.36 0.39 0.41 0.46 0.52 0.56 0.60 0.63 0.65 0.63 0.64 0.68 0.68 0.70 0.76 0.88 0.89 0.80 0.80 0.86 0.82
0.29 0.34 0.42 0.41 0.38 0.38 0.42 0.43 0.44 0.44 0.43 0.40 0.37 0.43 0.65 0.72 0.60 0.50 0.46 0.44 0.44 0.44 0.45 0.47 0.48 0.51 0.56 0.59 0.63 0.64 0.66 0.62 0.62 0.67 0.70 0.73 0.80 0.86 0.81 0.83 0.83 0.85 0.91
0.33 0.34 0.38 0.40 0.40 0.43 0.47 0.49 0.50 0.48 0.44 0.42 0.40 0.45 0.61 0.60 0.53 0.51 0.48 0.45 0.45 0.47 0.52 0.59 0.57 0.53 0.58 0.67 0.73 0.75 0.69 0.61 0.59 0.68 0.74 0.75 0.79 0.82 0.84 0.89 0.91 0.97 1.01
0.37 0.38 0.39 0.39 0.41 0.46 0.48 0.45 0.45 0.45 0.43 0.42 0.42 0.44 0.47 0.49 0.47 0.47 0.48 0.48 0.49 0.51 0.53 0.59 0.59 0.53 0.52 0.62 0.73 0.86 0.87 0.71 0.66 0.79 0.95 0.95 0.93 0.96 1.02 1.06 1.00 0.98 0.88
0.37 0.39 0.40 0.40 0.41 0.42 0.42 0.40 0.40 0.42 0.44 0.44 0.44 0.43 0.42 0.43 0.44 0.44 0.47 0.49 0.52 0.53 0.53 0.56 0.56 0.53 0.53 0.60 0.65 0.70 0.76 0.84 1.04 1.16 1.31 1.50 1.39 1.21 1.16 1.09 0.96 0.89 0.88
0.37 0.40 0.42 0.43 0.43 0.44 0.44 0.42 0.41 0.41 0.43 0.45 0.45 0.43 0.42 0.43 0.43 0.43 0.44 0.47 0.50 0.52 0.50 0.52 0.54 0.55 0.56 0.58 0.60 0.62 0.69 0.85 1.13 1.49 1.65 1.59 1.35 1.15 1.13 1.08 0.95 0.91 0.91
0.37 0.41 0.43 0.44 0.45 0.45 0.45 0.45 0.43 0.43 0.45 0.45 0.46 0.46 0.46 0.45 0.44 0.45 0.46 0.48 0.49 0.48 0.47 0.48 0.49 0.53 0.57 0.59 0.56 0.59 0.70 0.79 0.89 1.07 1.40 1.49 1.31 1.12 1.12 1.18 1.05 1.00 0.98